Time,TemperatureF,DewpointF,PressureIn,WindDirection,WindDirectionDegrees,WindSpeedMPH,WindSpeedGustMPH,Humidity,HourlyPrecipIn,Conditions,Clouds,dailyrainin,SolarRadiationWatts/m^2,SoftwareType,DateUTC
2013-09-20 00:00:00,46.5,40.7,30.05,North,-999,0.0,0.0,80,0.00,,,0.00,0.00,VWS V14.01,2013-09-20 06:00:00,
2013-09-20 00:05:00,46.2,40.4,30.05,North,-999,0.0,0.0,80,0.00,,,0.00,0.00,VWS V14.01,2013-09-20 06:05:00,
2013-09-20 00:10:00,46.0,40.5,30.05,North,-999,0.0,0.0,81,0.00,,,0.00,0.00,VWS V14.01,2013-09-20 06:10:00,
2013-09-20 00:15:00,45.7,40.2,30.05,North,-999,0.0,0.0,81,0.00,,,0.00,0.00,VWS V14.01,2013-09-20 06:15:00,
2013-09-20 00:20:00,45.4,40.5,30.05,North,-999,0.0,0.0,83,0.00,,,0.00,0.00,VWS V14.01,2013-09-20 06:20:00,
2013-09-20 00:25:00,45.2,40.3,30.04,North,-999,0.0,0.0,83,0.00,,,0.00,0.00,VWS V14.01,2013-09-20 06:25:00,
2013-09-20 00:30:00,44.9,40.1,30.04,North,-999,0.0,0.0,83,0.00,,,0.00,0.00,VWS V14.01,2013-09-20 06:30:00,
2013-09-20 00:35:00,44.7,40.2,30.04,North,-999,0.0,0.0,84,0.00,,,0.00,0.00,VWS V14.01,2013-09-20 06:35:00,
2013-09-20 00:40:00,44.5,40.0,30.04,North,-999,0.0,0.0,84,0.00,,,0.00,0.00,VWS V14.01,2013-09-20 06:40:00,
2013-09-20 00:45:00,44.1,39.9,30.04,North,-999,0.0,0.0,85,0.00,,,0.00,0.00,VWS V14.01,2013-09-20 06:45:00,
2013-09-20 00:50:00,43.9,40.0,30.04,North,-999,0.0,0.0,86,0.00,,,0.00,0.00,VWS V14.01,2013-09-20 06:50:00,
2013-09-20 00:55:00,43.7,39.8,30.04,North,-999,5.0,5.0,86,0.00,,,0.00,0.00,VWS V14.01,2013-09-20 06:55:00,
2013-09-20 01:00:00,44.2,40.3,30.04,North,-999,4.0,5.0,86,0.00,,,0.00,0.00,VWS V14.01,2013-09-20 07:00:00,
2013-09-20 01:05:00,44.4,40.2,30.04,North,-999,3.0,5.0,85,0.00,,,0.00,0.00,VWS V14.01,2013-09-20 07:05:00,
2013-09-20 01:10:00,44.6,40.4,30.04,North,-999,0.0,3.0,85,0.00,,,0.00,0.00,VWS V14.01,2013-09-20 07:10:00,
2013-09-20 01:15:00,44.6,40.4,30.04,North,-999,0.0,3.0,85,0.00,,,0.00,0.00,VWS V14.01,2013-09-20 07:15:00,
2013-09-20 01:20:00,44.9,40.4,30.04,North,-999,0.0,0.0,84,0.00,,,0.00,0.00,VWS V14.01,2013-09-20 07:20:00,
2013-09-20 01:25:00,44.9,40.4,30.04,North,-999,0.0,0.0,84,0.00,,,0.00,0.00,VWS V14.01,2013-09-20 07:25:00,
2013-09-20 01:30:00,44.9,40.4,30.04,North,-999,0.0,0.0,84,0.00,,,0.00,0.00,VWS V14.01,2013-09-20 07:30:00,
2013-09-20 01:35:00,44.8,40.3,30.04,North,-999,0.0,0.0,84,0.00,,,0.00,0.00,VWS V14.01,2013-09-20 07:35:00,
2013-09-20 01:40:00,44.8,40.3,30.04,North,-999,0.0,0.0,84,0.00,,,0.00,0.00,VWS V14.01,2013-09-20 07:40:00,
2013-09-20 01:45:00,44.6,40.1,30.04,North,-999,0.0,0.0,84,0.00,,,0.00,0.00,VWS V14.01,2013-09-20 07:45:00,
2013-09-20 01:50:00,44.3,39.8,30.04,North,-999,0.0,0.0,84,0.00,,,0.00,0.00,VWS V14.01,2013-09-20 07:50:00,
2013-09-20 01:55:00,44.0,39.5,30.04,North,-999,0.0,0.0,84,0.00,,,0.00,0.00,VWS V14.01,2013-09-20 07:55:00,
2013-09-20 02:00:00,43.7,39.5,30.04,North,-999,0.0,0.0,85,0.00,,,0.00,0.00,VWS V14.01,2013-09-20 08:00:00,
2013-09-20 02:05:00,43.5,39.6,30.04,North,-999,0.0,0.0,86,0.00,,,0.00,0.00,VWS V14.01,2013-09-20 08:05:00,
2013-09-20 02:10:00,43.4,39.5,30.04,North,-999,0.0,0.0,86,0.00,,,0.00,0.00,VWS V14.01,2013-09-20 08:10:00,
2013-09-20 02:15:00,43.2,39.3,30.04,North,-999,0.0,0.0,86,0.00,,,0.00,0.00,VWS V14.01,2013-09-20 08:15:00,
2013-09-20 02:20:00,43.0,39.4,30.04,North,-999,0.0,0.0,87,0.00,,,0.00,0.00,VWS V14.01,2013-09-20 08:20:00,
2013-09-20 02:25:00,43.1,39.5,30.04,North,-999,0.0,0.0,87,0.00,,,0.00,0.00,VWS V14.01,2013-09-20 08:25:00,
2013-09-20 02:30:00,43.3,39.7,30.03,North,-999,0.0,0.0,87,0.00,,,0.00,0.00,VWS V14.01,2013-09-20 08:30:00,
2013-09-20 02:35:00,43.3,39.7,30.04,North,-999,0.0,0.0,87,0.00,,,0.00,0.00,VWS V14.01,2013-09-20 08:35:00,
2013-09-20 02:40:00,43.3,39.4,30.03,North,-999,0.0,0.0,86,0.00,,,0.00,0.00,VWS V14.01,2013-09-20 08:40:00,
2013-09-20 02:45:00,43.2,39.3,30.03,North,-999,0.0,0.0,86,0.00,,,0.00,0.00,VWS V14.01,2013-09-20 08:45:00,
2013-09-20 02:50:00,43.1,39.5,30.03,North,-999,0.0,0.0,87,0.00,,,0.00,0.00,VWS V14.01,2013-09-20 08:50:00,
2013-09-20 02:55:00,43.1,39.5,30.03,North,-999,0.0,0.0,87,0.00,,,0.00,0.00,VWS V14.01,2013-09-20 08:55:00,
2013-09-20 03:00:00,43.0,39.4,30.03,North,-999,0.0,0.0,87,0.00,,,0.00,0.00,VWS V14.01,2013-09-20 09:00:00,
2013-09-20 03:05:00,42.9,39.3,30.03,North,-999,0.0,0.0,87,0.00,,,0.00,0.00,VWS V14.01,2013-09-20 09:05:00,
2013-09-20 03:10:00,42.8,39.2,30.03,North,-999,0.0,0.0,87,0.00,,,0.00,0.00,VWS V14.01,2013-09-20 09:10:00,
2013-09-20 03:15:00,42.7,39.1,30.03,North,-999,0.0,0.0,87,0.00,,,0.00,0.00,VWS V14.01,2013-09-20 09:15:00,
2013-09-20 03:20:00,42.6,39.0,30.03,North,-999,0.0,0.0,87,0.00,,,0.00,0.00,VWS V14.01,2013-09-20 09:20:00,
2013-09-20 03:25:00,42.6,39.0,30.03,North,-999,0.0,0.0,87,0.00,,,0.00,0.00,VWS V14.01,2013-09-20 09:25:00,
2013-09-20 03:30:00,42.4,39.1,30.03,North,-999,0.0,0.0,88,0.00,,,0.00,0.00,VWS V14.01,2013-09-20 09:30:00,
2013-09-20 03:35:00,42.4,39.1,30.03,North,-999,0.0,0.0,88,0.00,,,0.00,0.00,VWS V14.01,2013-09-20 09:35:00,
2013-09-20 03:40:00,42.4,39.1,30.03,North,-999,0.0,0.0,88,0.00,,,0.00,0.00,VWS V14.01,2013-09-20 09:40:00,
2013-09-20 03:45:00,42.4,39.1,30.03,North,-999,0.0,0.0,88,0.00,,,0.00,0.00,VWS V14.01,2013-09-20 09:45:00,
2013-09-20 03:50:00,42.3,39.0,30.03,North,-999,0.0,0.0,88,0.00,,,0.00,0.00,VWS V14.01,2013-09-20 09:50:00,
2013-09-20 03:55:00,42.2,38.9,30.03,North,-999,0.0,0.0,88,0.00,,,0.00,0.00,VWS V14.01,2013-09-20 09:55:00,
2013-09-20 04:00:00,42.0,39.0,30.03,North,-999,0.0,0.0,89,0.00,,,0.00,0.00,VWS V14.01,2013-09-20 10:00:00,
2013-09-20 04:05:00,42.0,39.0,30.03,North,-999,0.0,0.0,89,0.00,,,0.00,0.00,VWS V14.01,2013-09-20 10:05:00,
2013-09-20 04:10:00,41.9,38.9,30.03,North,-999,0.0,0.0,89,0.00,,,0.00,0.00,VWS V14.01,2013-09-20 10:10:00,
2013-09-20 04:15:00,41.8,38.8,30.02,North,-999,0.0,0.0,89,0.00,,,0.00,0.00,VWS V14.01,2013-09-20 10:15:00,
2013-09-20 04:20:00,41.8,38.8,30.02,North,-999,0.0,0.0,89,0.00,,,0.00,0.00,VWS V14.01,2013-09-20 10:20:00,
2013-09-20 04:25:00,41.9,38.9,30.02,North,-999,0.0,0.0,89,0.00,,,0.00,0.00,VWS V14.01,2013-09-20 10:25:00,
2013-09-20 04:30:00,41.8,38.8,30.02,North,-999,0.0,0.0,89,0.00,,,0.00,0.00,VWS V14.01,2013-09-20 10:30:00,
2013-09-20 04:35:00,41.7,38.7,30.02,North,-999,0.0,0.0,89,0.00,,,0.00,0.00,VWS V14.01,2013-09-20 10:35:00,
2013-09-20 04:40:00,41.9,38.9,30.02,North,-999,0.0,0.0,89,0.00,,,0.00,0.00,VWS V14.01,2013-09-20 10:40:00,
2013-09-20 04:45:00,42.0,38.7,30.02,North,-999,0.0,0.0,88,0.00,,,0.00,0.00,VWS V14.01,2013-09-20 10:45:00,
2013-09-20 04:50:00,42.0,38.7,30.02,North,-999,0.0,0.0,88,0.00,,,0.00,0.00,VWS V14.01,2013-09-20 10:50:00,
2013-09-20 04:55:00,42.0,38.4,30.02,North,-999,0.0,0.0,87,0.00,,,0.00,0.00,VWS V14.01,2013-09-20 10:55:00,
2013-09-20 05:00:00,41.8,38.2,30.02,North,-999,0.0,0.0,87,0.00,,,0.00,0.00,VWS V14.01,2013-09-20 11:00:00,
2013-09-20 05:05:00,41.6,38.0,30.01,North,-999,0.0,0.0,87,0.00,,,0.00,0.00,VWS V14.01,2013-09-20 11:05:00,
2013-09-20 05:10:00,41.6,38.0,30.02,North,-999,0.0,0.0,87,0.00,,,0.00,0.00,VWS V14.01,2013-09-20 11:10:00,
2013-09-20 05:15:00,41.5,37.9,30.01,North,-999,0.0,0.0,87,0.00,,,0.00,0.00,VWS V14.01,2013-09-20 11:15:00,
2013-09-20 05:20:00,41.3,37.7,30.01,North,-999,0.0,0.0,87,0.00,,,0.00,0.00,VWS V14.01,2013-09-20 11:20:00,
2013-09-20 05:25:00,41.1,37.5,30.01,North,-999,0.0,0.0,87,0.00,,,0.00,0.00,VWS V14.01,2013-09-20 11:25:00,
2013-09-20 05:30:00,41.0,37.7,30.01,North,-999,0.0,0.0,88,0.00,,,0.00,0.00,VWS V14.01,2013-09-20 11:30:00,
2013-09-20 05:35:00,40.9,37.6,30.01,North,-999,0.0,0.0,88,0.00,,,0.00,0.00,VWS V14.01,2013-09-20 11:35:00,
2013-09-20 05:40:00,40.8,37.5,30.01,North,-999,0.0,0.0,88,0.00,,,0.00,0.00,VWS V14.01,2013-09-20 11:40:00,
2013-09-20 05:45:00,40.6,37.3,30.01,North,-999,0.0,0.0,88,0.00,,,0.00,0.00,VWS V14.01,2013-09-20 11:45:00,
2013-09-20 05:50:00,40.5,37.5,30.01,North,-999,0.0,0.0,89,0.00,,,0.00,0.00,VWS V14.01,2013-09-20 11:50:00,
2013-09-20 05:55:00,40.5,37.8,30.01,North,-999,0.0,0.0,90,0.00,,,0.00,0.00,VWS V14.01,2013-09-20 11:55:00,
2013-09-20 06:00:00,40.6,37.6,30.01,North,-999,0.0,0.0,89,0.00,,,0.00,0.00,VWS V14.01,2013-09-20 12:00:00,
2013-09-20 06:05:00,40.3,37.3,30.01,North,-999,0.0,0.0,89,0.00,,,0.00,0.00,VWS V14.01,2013-09-20 12:05:00,
2013-09-20 06:10:00,40.2,37.5,30.01,North,-999,0.0,0.0,90,0.00,,,0.00,0.00,VWS V14.01,2013-09-20 12:10:00,
2013-09-20 06:15:00,39.8,36.8,30.00,North,-999,0.0,0.0,89,0.00,,,0.00,0.00,VWS V14.01,2013-09-20 12:15:00,
2013-09-20 06:20:00,39.6,36.9,30.01,North,-999,0.0,0.0,90,0.00,,,0.00,0.00,VWS V14.01,2013-09-20 12:20:00,
2013-09-20 06:25:00,39.5,37.1,30.01,North,-999,0.0,0.0,91,0.00,,,0.00,0.00,VWS V14.01,2013-09-20 12:25:00,
2013-09-20 06:30:00,39.6,37.2,30.01,North,-999,0.0,0.0,91,0.00,,,0.00,0.00,VWS V14.01,2013-09-20 12:30:00,
2013-09-20 06:35:00,39.5,37.1,30.01,North,-999,0.0,0.0,91,0.00,,,0.00,0.00,VWS V14.01,2013-09-20 12:35:00,
2013-09-20 06:40:00,39.6,37.2,30.00,North,-999,0.0,0.0,91,0.00,,,0.00,0.00,VWS V14.01,2013-09-20 12:40:00,
2013-09-20 06:45:00,39.6,37.2,30.01,North,-999,0.0,0.0,91,0.00,,,0.00,0.00,VWS V14.01,2013-09-20 12:45:00,
2013-09-20 06:50:00,39.3,36.9,30.01,North,-999,0.0,0.0,91,0.00,,,0.00,0.00,VWS V14.01,2013-09-20 12:50:00,
2013-09-20 06:55:00,39.3,36.9,30.00,North,-999,0.0,0.0,91,0.00,,,0.00,0.00,VWS V14.01,2013-09-20 12:55:00,
2013-09-20 07:00:00,39.6,37.5,30.00,North,-999,0.0,0.0,92,0.00,,,0.00,0.00,VWS V14.01,2013-09-20 13:00:00,
2013-09-20 07:05:00,40.0,37.6,30.01,North,-999,0.0,0.0,91,0.00,,,0.00,5.00,VWS V14.01,2013-09-20 13:05:00,
2013-09-20 07:10:00,39.9,37.2,30.01,North,-999,0.0,0.0,90,0.00,,,0.00,7.00,VWS V14.01,2013-09-20 13:10:00,
2013-09-20 07:15:00,39.9,37.2,30.00,North,-999,0.0,0.0,90,0.00,,,0.00,11.00,VWS V14.01,2013-09-20 13:15:00,
2013-09-20 07:20:00,39.9,37.2,30.00,North,-999,0.0,0.0,90,0.00,,,0.00,14.00,VWS V14.01,2013-09-20 13:20:00,
2013-09-20 07:25:00,40.0,37.3,30.00,North,-999,0.0,0.0,90,0.00,,,0.00,23.00,VWS V14.01,2013-09-20 13:25:00,
2013-09-20 07:29:00,40.3,37.9,30.00,North,-999,0.0,0.0,91,0.00,,,0.00,35.00,VWS V14.01,2013-09-20 13:29:00,
2013-09-20 07:34:00,40.7,38.0,30.00,North,-999,0.0,0.0,90,0.00,,,0.00,47.00,VWS V14.01,2013-09-20 13:34:00,
2013-09-20 07:39:00,41.3,38.6,30.00,North,-999,0.0,2.0,90,0.00,,,0.00,58.00,VWS V14.01,2013-09-20 13:39:00,
2013-09-20 07:44:00,41.9,39.2,30.00,North,-999,0.0,2.0,90,0.00,,,0.00,72.00,VWS V14.01,2013-09-20 13:44:00,
2013-09-20 07:49:00,42.6,39.3,30.00,North,-999,0.0,0.0,88,0.00,,,0.00,88.00,VWS V14.01,2013-09-20 13:49:00,
2013-09-20 07:54:00,43.1,39.8,30.00,North,-999,0.0,0.0,88,0.00,,,0.00,104.00,VWS V14.01,2013-09-20 13:54:00,
2013-09-20 07:59:00,43.7,40.1,30.00,North,-999,0.0,0.0,87,0.00,,,0.00,120.00,VWS V14.01,2013-09-20 13:59:00,
2013-09-20 08:04:00,44.3,40.4,30.00,North,-999,0.0,0.0,86,0.00,,,0.00,137.00,VWS V14.01,2013-09-20 14:04:00,
2013-09-20 08:09:00,44.7,40.8,30.00,North,-999,0.0,0.0,86,0.00,,,0.00,151.00,VWS V14.01,2013-09-20 14:09:00,
2013-09-20 08:14:00,45.2,40.7,30.00,North,-999,0.0,0.0,84,0.00,,,0.00,169.00,VWS V14.01,2013-09-20 14:14:00,
2013-09-20 08:19:00,45.7,40.8,30.00,North,-999,0.0,0.0,83,0.00,,,0.00,188.00,VWS V14.01,2013-09-20 14:19:00,
2013-09-20 08:24:00,46.1,41.2,30.00,North,-999,0.0,0.0,83,0.00,,,0.00,206.00,VWS V14.01,2013-09-20 14:24:00,
2013-09-20 08:29:00,46.8,41.9,30.00,North,-999,0.0,0.0,83,0.00,,,0.00,221.00,VWS V14.01,2013-09-20 14:29:00,
2013-09-20 08:34:00,47.4,41.5,30.00,North,-999,0.0,0.0,80,0.00,,,0.00,237.00,VWS V14.01,2013-09-20 14:34:00,
2013-09-20 08:39:00,47.9,41.7,30.00,North,-999,0.0,0.0,79,0.00,,,0.00,253.00,VWS V14.01,2013-09-20 14:39:00,
2013-09-20 08:44:00,48.3,41.8,30.00,North,-999,0.0,0.0,78,0.00,,,0.00,267.00,VWS V14.01,2013-09-20 14:44:00,
2013-09-20 08:49:00,48.5,41.6,30.00,North,-999,0.0,0.0,77,0.00,,,0.00,283.00,VWS V14.01,2013-09-20 14:49:00,
2013-09-20 08:54:00,48.4,41.5,30.00,North,-999,0.0,0.0,77,0.00,,,0.00,299.00,VWS V14.01,2013-09-20 14:54:00,
2013-09-20 08:59:00,48.3,41.4,30.00,North,-999,0.0,4.0,77,0.00,,,0.00,315.00,VWS V14.01,2013-09-20 14:59:00,
2013-09-20 09:04:00,48.6,42.1,30.00,North,-999,0.0,4.0,78,0.00,,,0.00,330.00,VWS V14.01,2013-09-20 15:04:00,
2013-09-20 09:09:00,49.2,42.6,30.00,North,-999,0.0,0.0,78,0.00,,,0.00,346.00,VWS V14.01,2013-09-20 15:09:00,
2013-09-20 09:14:00,50.0,42.4,30.00,North,-999,0.0,0.0,75,0.00,,,0.00,357.00,VWS V14.01,2013-09-20 15:14:00,
2013-09-20 09:19:00,50.5,41.5,30.00,North,-999,5.0,5.0,71,0.00,,,0.00,374.00,VWS V14.01,2013-09-20 15:19:00,
2013-09-20 09:24:00,50.1,41.4,30.01,North,-999,0.0,5.0,72,0.00,,,0.00,390.00,VWS V14.01,2013-09-20 15:24:00,
2013-09-20 09:29:00,50.1,41.8,30.01,North,-999,0.0,0.0,73,0.00,,,0.00,404.00,VWS V14.01,2013-09-20 15:29:00,
2013-09-20 09:34:00,50.4,42.1,30.00,North,-999,0.0,0.0,73,0.00,,,0.00,418.00,VWS V14.01,2013-09-20 15:34:00,
2013-09-20 09:39:00,50.5,42.2,30.00,North,-999,0.0,5.0,73,0.00,,,0.00,432.00,VWS V14.01,2013-09-20 15:39:00,
2013-09-20 09:44:00,50.6,42.6,30.00,North,-999,0.0,5.0,74,0.00,,,0.00,445.00,VWS V14.01,2013-09-20 15:44:00,
2013-09-20 09:49:00,51.1,43.1,30.00,North,-999,1.0,3.0,74,0.00,,,0.00,459.00,VWS V14.01,2013-09-20 15:49:00,
2013-09-20 09:54:00,51.5,43.1,30.00,North,-999,0.0,3.0,73,0.00,,,0.00,473.00,VWS V14.01,2013-09-20 15:54:00,
2013-09-20 09:59:00,52.3,43.9,30.00,North,-999,0.0,0.0,73,0.00,,,0.00,485.00,VWS V14.01,2013-09-20 15:59:00,
2013-09-20 10:04:00,52.9,43.4,30.00,North,-999,0.0,0.0,70,0.00,,,0.00,499.00,VWS V14.01,2013-09-20 16:04:00,
2013-09-20 10:09:00,53.3,43.4,30.00,North,-999,0.0,0.0,69,0.00,,,0.00,513.00,VWS V14.01,2013-09-20 16:09:00,
2013-09-20 10:14:00,53.9,44.0,30.00,North,-999,2.0,2.0,69,0.00,,,0.00,524.00,VWS V14.01,2013-09-20 16:14:00,
2013-09-20 10:19:00,54.2,43.5,29.99,North,-999,0.0,0.0,67,0.00,,,0.00,536.00,VWS V14.01,2013-09-20 16:19:00,
2013-09-20 10:24:00,54.6,43.9,29.99,North,-999,3.0,6.0,67,0.00,,,0.00,547.00,VWS V14.01,2013-09-20 16:24:00,
2013-09-20 10:29:00,54.9,43.8,29.99,North,-999,1.0,6.0,66,0.00,,,0.00,561.00,VWS V14.01,2013-09-20 16:29:00,
2013-09-20 10:34:00,55.5,44.3,29.99,North,-999,4.0,6.0,66,0.00,,,0.00,571.00,VWS V14.01,2013-09-20 16:34:00,
2013-09-20 10:39:00,56.0,43.6,29.99,North,-999,7.0,7.0,63,0.00,,,0.00,584.00,VWS V14.01,2013-09-20 16:39:00,
2013-09-20 10:44:00,56.8,43.5,29.98,North,-999,6.0,8.0,61,0.00,,,0.00,596.00,VWS V14.01,2013-09-20 16:44:00,
2013-09-20 10:49:00,57.1,42.9,29.98,North,-999,4.0,11.0,59,0.00,,,0.00,606.00,VWS V14.01,2013-09-20 16:49:00,
2013-09-20 10:54:00,57.5,43.3,29.98,North,-999,4.0,12.0,59,0.00,,,0.00,613.00,VWS V14.01,2013-09-20 16:54:00,
2013-09-20 10:59:00,58.0,43.3,29.98,North,-999,6.0,10.0,58,0.00,,,0.00,624.00,VWS V14.01,2013-09-20 16:59:00,
2013-09-20 11:04:00,58.6,43.4,29.98,North,-999,4.0,11.0,57,0.00,,,0.00,633.00,VWS V14.01,2013-09-20 17:04:00,
2013-09-20 11:09:00,59.2,42.6,29.97,North,-999,13.0,13.0,54,0.00,,,0.00,643.00,VWS V14.01,2013-09-20 17:09:00,
2013-09-20 11:14:00,59.8,42.7,29.97,North,-999,5.0,13.0,53,0.00,,,0.00,650.00,VWS V14.01,2013-09-20 17:14:00,
2013-09-20 11:19:00,60.4,43.2,29.97,North,-999,6.0,11.0,53,0.00,,,0.00,661.00,VWS V14.01,2013-09-20 17:19:00,
2013-09-20 11:24:00,60.5,42.8,29.96,North,-999,6.0,12.0,52,0.00,,,0.00,666.00,VWS V14.01,2013-09-20 17:24:00,
2013-09-20 11:29:00,60.9,42.2,29.96,North,-999,6.0,13.0,50,0.00,,,0.00,675.00,VWS V14.01,2013-09-20 17:29:00,
2013-09-20 11:34:00,61.4,42.1,29.96,North,-999,12.0,16.0,49,0.00,,,0.00,682.00,VWS V14.01,2013-09-20 17:34:00,
2013-09-20 11:39:00,61.5,41.7,29.96,North,-999,6.0,12.0,48,0.00,,,0.00,689.00,VWS V14.01,2013-09-20 17:39:00,
2013-09-20 11:44:00,62.2,41.7,29.96,North,-999,5.0,16.0,47,0.00,,,0.00,696.00,VWS V14.01,2013-09-20 17:44:00,
2013-09-20 11:49:00,62.7,40.5,29.95,North,-999,10.0,16.0,44,0.00,,,0.00,703.00,VWS V14.01,2013-09-20 17:49:00,
2013-09-20 11:54:00,62.9,40.1,29.95,North,-999,8.0,16.0,43,0.00,,,0.00,708.00,VWS V14.01,2013-09-20 17:54:00,
2013-09-20 11:59:00,63.2,39.8,29.95,North,-999,12.0,16.0,42,0.00,,,0.00,714.00,VWS V14.01,2013-09-20 17:59:00,
2013-09-20 12:04:00,63.2,40.3,29.95,North,-999,15.0,16.0,43,0.00,,,0.00,719.00,VWS V14.01,2013-09-20 18:04:00,
2013-09-20 12:09:00,63.5,39.4,29.95,North,-999,10.0,16.0,41,0.00,,,0.00,726.00,VWS V14.01,2013-09-20 18:09:00,
2013-09-20 12:14:00,63.5,39.4,29.95,North,-999,7.0,18.0,41,0.00,,,0.00,729.00,VWS V14.01,2013-09-20 18:14:00,
2013-09-20 12:19:00,63.7,39.6,29.94,North,-999,9.0,15.0,41,0.00,,,0.00,733.00,VWS V14.01,2013-09-20 18:19:00,
2013-09-20 12:24:00,64.0,39.2,29.94,North,-999,9.0,18.0,40,0.00,,,0.00,738.00,VWS V14.01,2013-09-20 18:24:00,
2013-09-20 12:29:00,64.1,39.9,29.93,North,-999,15.0,16.0,41,0.00,,,0.00,740.00,VWS V14.01,2013-09-20 18:29:00,
2013-09-20 12:34:00,64.0,38.6,29.93,North,-999,11.0,18.0,39,0.00,,,0.00,742.00,VWS V14.01,2013-09-20 18:34:00,
2013-09-20 12:39:00,64.2,40.7,29.93,North,-999,5.0,15.0,42,0.00,,,0.00,745.00,VWS V14.01,2013-09-20 18:39:00,
2013-09-20 12:44:00,64.2,39.4,29.93,North,-999,11.0,17.0,40,0.00,,,0.00,749.00,VWS V14.01,2013-09-20 18:44:00,
2013-09-20 12:49:00,64.0,39.8,29.93,North,-999,9.0,15.0,41,0.00,,,0.00,749.00,VWS V14.01,2013-09-20 18:49:00,
2013-09-20 12:54:00,64.3,39.5,29.93,North,-999,12.0,17.0,40,0.00,,,0.00,752.00,VWS V14.01,2013-09-20 18:54:00,
2013-09-20 12:59:00,64.4,38.9,29.92,North,-999,9.0,17.0,39,0.00,,,0.00,752.00,VWS V14.01,2013-09-20 18:59:00,
2013-09-20 13:04:00,64.2,38.8,29.92,North,-999,14.0,19.0,39,0.00,,,0.00,754.00,VWS V14.01,2013-09-20 19:04:00,
2013-09-20 13:09:00,64.2,38.1,29.93,North,-999,11.0,17.0,38,0.00,,,0.00,754.00,VWS V14.01,2013-09-20 19:09:00,
2013-09-20 13:14:00,64.5,38.3,29.93,North,-999,11.0,17.0,38,0.00,,,0.00,754.00,VWS V14.01,2013-09-20 19:14:00,
2013-09-20 13:19:00,64.9,39.4,29.92,North,-999,16.0,17.0,39,0.00,,,0.00,754.00,VWS V14.01,2013-09-20 19:19:00,
2013-09-20 13:24:00,65.2,39.0,29.92,North,-999,12.0,17.0,38,0.00,,,0.00,752.00,VWS V14.01,2013-09-20 19:24:00,
2013-09-20 13:29:00,65.4,37.8,29.92,North,-999,13.0,18.0,36,0.00,,,0.00,752.00,VWS V14.01,2013-09-20 19:29:00,
2013-09-20 13:34:00,65.4,37.8,29.92,North,-999,18.0,18.0,36,0.00,,,0.00,751.00,VWS V14.01,2013-09-20 19:34:00,
2013-09-20 13:39:00,65.6,38.7,29.91,North,-999,10.0,13.0,37,0.00,,,0.00,747.00,VWS V14.01,2013-09-20 19:39:00,
2013-09-20 13:44:00,65.4,37.8,29.91,North,-999,11.0,16.0,36,0.00,,,0.00,744.00,VWS V14.01,2013-09-20 19:44:00,
2013-09-20 13:49:00,65.6,38.7,29.91,North,-999,10.0,16.0,37,0.00,,,0.00,742.00,VWS V14.01,2013-09-20 19:49:00,
2013-09-20 13:54:00,65.4,37.8,29.91,North,-999,9.0,20.0,36,0.00,,,0.00,738.00,VWS V14.01,2013-09-20 19:54:00,
2013-09-20 13:59:00,65.8,38.8,29.90,North,-999,12.0,16.0,37,0.00,,,0.00,735.00,VWS V14.01,2013-09-20 19:59:00,
2013-09-20 14:04:00,66.4,39.4,29.90,North,-999,8.0,16.0,37,0.00,,,0.00,731.00,VWS V14.01,2013-09-20 20:04:00,
2013-09-20 14:09:00,66.3,38.6,29.90,North,-999,9.0,14.0,36,0.00,,,0.00,726.00,VWS V14.01,2013-09-20 20:09:00,
2013-09-20 14:14:00,66.4,40.0,29.90,North,-999,14.0,16.0,38,0.00,,,0.00,721.00,VWS V14.01,2013-09-20 20:14:00,
2013-09-20 14:19:00,66.5,38.8,29.90,North,-999,8.0,17.0,36,0.00,,,0.00,715.00,VWS V14.01,2013-09-20 20:19:00,
2013-09-20 14:24:00,66.4,39.4,29.90,North,-999,8.0,19.0,37,0.00,,,0.00,708.00,VWS V14.01,2013-09-20 20:24:00,
2013-09-20 14:29:00,66.6,38.1,29.89,North,-999,7.0,16.0,35,0.00,,,0.00,705.00,VWS V14.01,2013-09-20 20:29:00,
2013-09-20 14:34:00,66.9,38.4,29.89,North,-999,11.0,16.0,35,0.00,,,0.00,698.00,VWS V14.01,2013-09-20 20:34:00,
2013-09-20 14:39:00,67.3,38.0,29.89,North,-999,10.0,14.0,34,0.00,,,0.00,689.00,VWS V14.01,2013-09-20 20:39:00,
2013-09-20 14:44:00,67.5,38.2,29.88,North,-999,12.0,16.0,34,0.00,,,0.00,684.00,VWS V14.01,2013-09-20 20:44:00,
2013-09-20 14:49:00,67.7,36.8,29.88,North,-999,11.0,14.0,32,0.00,,,0.00,677.00,VWS V14.01,2013-09-20 20:49:00,
2013-09-20 14:54:00,67.9,36.2,29.88,North,-999,10.0,14.0,31,0.00,,,0.00,668.00,VWS V14.01,2013-09-20 20:54:00,
2013-09-20 14:58:00,68.0,35.4,29.87,North,-999,15.0,17.0,30,0.00,,,0.00,663.00,VWS V14.01,2013-09-20 20:58:00,
2013-09-20 15:03:00,68.1,35.5,29.87,North,-999,13.0,17.0,30,0.00,,,0.00,652.00,VWS V14.01,2013-09-20 21:03:00,
2013-09-20 15:08:00,68.5,35.9,29.87,North,-999,13.0,17.0,30,0.00,,,0.00,645.00,VWS V14.01,2013-09-20 21:08:00,
2013-09-20 15:13:00,68.9,35.4,29.87,North,-999,11.0,17.0,29,0.00,,,0.00,635.00,VWS V14.01,2013-09-20 21:13:00,
2013-09-20 15:18:00,68.8,35.3,29.87,North,-999,10.0,13.0,29,0.00,,,0.00,626.00,VWS V14.01,2013-09-20 21:18:00,
2013-09-20 15:23:00,68.8,36.1,29.86,North,-999,6.0,15.0,30,0.00,,,0.00,615.00,VWS V14.01,2013-09-20 21:23:00,
2013-09-20 15:28:00,68.8,35.3,29.86,North,-999,8.0,14.0,29,0.00,,,0.00,606.00,VWS V14.01,2013-09-20 21:28:00,
2013-09-20 15:33:00,69.2,37.3,29.86,North,-999,3.0,14.0,31,0.00,,,0.00,596.00,VWS V14.01,2013-09-20 21:33:00,
2013-09-20 15:38:00,69.3,35.7,29.86,North,-999,11.0,14.0,29,0.00,,,0.00,587.00,VWS V14.01,2013-09-20 21:38:00,
2013-09-20 15:43:00,69.7,36.0,29.86,North,-999,6.0,15.0,29,0.00,,,0.00,575.00,VWS V14.01,2013-09-20 21:43:00,
2013-09-20 15:48:00,70.0,37.2,29.86,North,-999,6.0,12.0,30,0.00,,,0.00,561.00,VWS V14.01,2013-09-20 21:48:00,
2013-09-20 15:53:00,70.1,34.6,29.85,North,-999,10.0,16.0,27,0.00,,,0.00,550.00,VWS V14.01,2013-09-20 21:53:00,
2013-09-20 15:58:00,70.0,36.3,29.85,North,-999,6.0,12.0,29,0.00,,,0.00,540.00,VWS V14.01,2013-09-20 21:58:00,
2013-09-20 16:03:00,70.4,35.8,29.85,North,-999,10.0,15.0,28,0.00,,,0.00,527.00,VWS V14.01,2013-09-20 22:03:00,
2013-09-20 16:08:00,70.1,36.4,29.85,North,-999,12.0,16.0,29,0.00,,,0.00,513.00,VWS V14.01,2013-09-20 22:08:00,
2013-09-20 16:13:00,69.7,36.9,29.85,North,-999,8.0,18.0,30,0.00,,,0.00,499.00,VWS V14.01,2013-09-20 22:13:00,
2013-09-20 16:18:00,69.9,35.3,29.85,North,-999,10.0,14.0,28,0.00,,,0.00,487.00,VWS V14.01,2013-09-20 22:18:00,
2013-09-20 16:23:00,70.1,36.4,29.85,North,-999,13.0,16.0,29,0.00,,,0.00,475.00,VWS V14.01,2013-09-20 22:23:00,
2013-09-20 16:28:00,69.9,35.3,29.85,North,-999,12.0,13.0,28,0.00,,,0.00,459.00,VWS V14.01,2013-09-20 22:28:00,
2013-09-20 16:33:00,70.1,34.6,29.84,North,-999,12.0,16.0,27,0.00,,,0.00,448.00,VWS V14.01,2013-09-20 22:33:00,
2013-09-20 16:38:00,70.2,35.6,29.84,North,-999,11.0,11.0,28,0.00,,,0.00,432.00,VWS V14.01,2013-09-20 22:38:00,
2013-09-20 16:43:00,70.3,33.8,29.84,North,-999,11.0,17.0,26,0.00,,,0.00,420.00,VWS V14.01,2013-09-20 22:43:00,
2013-09-20 16:48:00,70.4,34.9,29.84,North,-999,12.0,13.0,27,0.00,,,0.00,406.00,VWS V14.01,2013-09-20 22:48:00,
2013-09-20 16:53:00,70.6,35.9,29.84,North,-999,12.0,15.0,28,0.00,,,0.00,392.00,VWS V14.01,2013-09-20 22:53:00,
2013-09-20 16:58:00,70.6,36.8,29.84,North,-999,15.0,15.0,29,0.00,,,0.00,376.00,VWS V14.01,2013-09-20 22:58:00,
2013-09-20 17:03:00,70.5,37.6,29.83,North,-999,9.0,16.0,30,0.00,,,0.00,364.00,VWS V14.01,2013-09-20 23:03:00,
2013-09-20 17:08:00,70.5,37.6,29.83,North,-999,9.0,15.0,30,0.00,,,0.00,346.00,VWS V14.01,2013-09-20 23:08:00,
2013-09-20 17:13:00,70.6,36.8,29.83,North,-999,10.0,15.0,29,0.00,,,0.00,332.00,VWS V14.01,2013-09-20 23:13:00,
2013-09-20 17:18:00,70.6,38.5,29.83,North,-999,9.0,15.0,31,0.00,,,0.00,316.00,VWS V14.01,2013-09-20 23:18:00,
2013-09-20 17:23:00,70.5,36.7,29.83,North,-999,8.0,15.0,29,0.00,,,0.00,301.00,VWS V14.01,2013-09-20 23:23:00,
2013-09-20 17:28:00,70.6,37.7,29.83,North,-999,7.0,13.0,30,0.00,,,0.00,283.00,VWS V14.01,2013-09-20 23:28:00,
2013-09-20 17:33:00,70.5,38.4,29.83,North,-999,10.0,13.0,31,0.00,,,0.00,265.00,VWS V14.01,2013-09-20 23:33:00,
2013-09-20 17:38:00,70.4,37.5,29.83,North,-999,10.0,12.0,30,0.00,,,0.00,250.00,VWS V14.01,2013-09-20 23:38:00,
2013-09-20 17:43:00,70.3,37.4,29.83,North,-999,7.0,12.0,30,0.00,,,0.00,229.00,VWS V14.01,2013-09-20 23:43:00,
2013-09-20 17:48:00,70.2,38.2,29.83,North,-999,6.0,10.0,31,0.00,,,0.00,207.00,VWS V14.01,2013-09-20 23:48:00,
2013-09-20 17:53:00,70.1,38.1,29.83,North,-999,9.0,11.0,31,0.00,,,0.00,188.00,VWS V14.01,2013-09-20 23:53:00,
2013-09-20 17:58:00,70.0,38.0,29.83,North,-999,11.0,12.0,31,0.00,,,0.00,169.00,VWS V14.01,2013-09-20 23:58:00,
2013-09-20 18:03:00,70.0,38.0,29.83,North,-999,5.0,12.0,31,0.00,,,0.00,151.00,VWS V14.01,2013-09-21 00:03:00,
2013-09-20 18:08:00,69.9,37.9,29.83,North,-999,4.0,11.0,31,0.00,,,0.00,132.00,VWS V14.01,2013-09-21 00:08:00,
2013-09-20 18:13:00,69.8,38.6,29.83,North,-999,4.0,11.0,32,0.00,,,0.00,113.00,VWS V14.01,2013-09-21 00:13:00,
2013-09-20 18:18:00,69.5,39.2,29.83,North,-999,6.0,6.0,33,0.00,,,0.00,95.00,VWS V14.01,2013-09-21 00:18:00,
2013-09-20 18:23:00,69.2,38.9,29.83,North,-999,4.0,7.0,33,0.00,,,0.00,79.00,VWS V14.01,2013-09-21 00:23:00,
2013-09-20 18:28:00,69.0,39.5,29.83,North,-999,4.0,5.0,34,0.00,,,0.00,63.00,VWS V14.01,2013-09-21 00:28:00,
2013-09-20 18:33:00,68.7,40.0,29.82,North,-999,4.0,10.0,35,0.00,,,0.00,49.00,VWS V14.01,2013-09-21 00:33:00,
2013-09-20 18:38:00,68.4,40.4,29.82,North,-999,5.0,6.0,36,0.00,,,0.00,37.00,VWS V14.01,2013-09-21 00:38:00,
2013-09-20 18:43:00,68.1,40.9,29.82,North,-999,0.0,6.0,37,0.00,,,0.00,26.00,VWS V14.01,2013-09-21 00:43:00,
2013-09-20 18:48:00,67.9,40.7,29.82,North,-999,0.0,0.0,37,0.00,,,0.00,18.00,VWS V14.01,2013-09-21 00:48:00,
2013-09-20 18:53:00,67.7,41.2,29.82,North,-999,0.0,3.0,38,0.00,,,0.00,16.00,VWS V14.01,2013-09-21 00:53:00,
2013-09-20 18:58:00,67.2,40.1,29.82,North,-999,0.0,4.0,37,0.00,,,0.00,12.00,VWS V14.01,2013-09-21 00:58:00,
2013-09-20 19:03:00,66.6,39.5,29.82,North,-999,1.0,6.0,37,0.00,,,0.00,11.00,VWS V14.01,2013-09-21 01:03:00,
2013-09-20 19:08:00,66.1,39.8,29.82,North,-999,1.0,3.0,38,0.00,,,0.00,7.00,VWS V14.01,2013-09-21 01:08:00,
2013-09-20 19:13:00,65.7,39.4,29.82,North,-999,0.0,4.0,38,0.00,,,0.00,5.00,VWS V14.01,2013-09-21 01:13:00,
2013-09-20 19:18:00,65.3,38.4,29.82,North,-999,0.0,2.0,37,0.00,,,0.00,0.00,VWS V14.01,2013-09-21 01:18:00,
2013-09-20 19:23:00,65.0,38.8,29.82,North,-999,0.0,2.0,38,0.00,,,0.00,0.00,VWS V14.01,2013-09-21 01:23:00,
2013-09-20 19:28:00,64.6,39.1,29.82,North,-999,0.0,0.0,39,0.00,,,0.00,0.00,VWS V14.01,2013-09-21 01:28:00,
2013-09-20 19:33:00,64.2,38.8,29.82,North,-999,0.0,3.0,39,0.00,,,0.00,0.00,VWS V14.01,2013-09-21 01:33:00,
2013-09-20 19:38:00,64.0,38.6,29.82,North,-999,0.0,0.0,39,0.00,,,0.00,0.00,VWS V14.01,2013-09-21 01:38:00,
2013-09-20 19:43:00,63.8,38.4,29.82,North,-999,0.0,0.0,39,0.00,,,0.00,0.00,VWS V14.01,2013-09-21 01:43:00,
2013-09-20 19:48:00,63.6,38.2,29.82,North,-999,0.0,0.0,39,0.00,,,0.00,0.00,VWS V14.01,2013-09-21 01:48:00,
2013-09-20 19:53:00,63.4,38.0,29.81,North,-999,0.0,0.0,39,0.00,,,0.00,0.00,VWS V14.01,2013-09-21 01:53:00,
2013-09-20 19:58:00,63.3,38.0,29.82,North,-999,0.0,0.0,39,0.00,,,0.00,0.00,VWS V14.01,2013-09-21 01:58:00,
2013-09-20 20:03:00,63.2,37.9,29.81,North,-999,0.0,0.0,39,0.00,,,0.00,0.00,VWS V14.01,2013-09-21 02:03:00,
2013-09-20 20:08:00,63.1,37.1,29.81,North,-999,0.0,0.0,38,0.00,,,0.00,0.00,VWS V14.01,2013-09-21 02:08:00,
2013-09-20 20:13:00,62.9,37.6,29.81,North,-999,0.0,0.0,39,0.00,,,0.00,0.00,VWS V14.01,2013-09-21 02:13:00,
2013-09-20 20:18:00,62.6,38.0,29.81,North,-999,0.0,0.0,40,0.00,,,0.00,0.00,VWS V14.01,2013-09-21 02:18:00,
2013-09-20 20:23:00,62.0,38.7,29.82,North,-999,0.0,0.0,42,0.00,,,0.00,0.00,VWS V14.01,2013-09-21 02:23:00,
2013-09-20 20:28:00,60.9,38.3,29.82,North,-999,0.0,0.0,43,0.00,,,0.00,0.00,VWS V14.01,2013-09-21 02:28:00,
2013-09-20 20:33:00,60.2,38.8,29.81,North,-999,0.0,0.0,45,0.00,,,0.00,0.00,VWS V14.01,2013-09-21 02:33:00,
2013-09-20 20:38:00,59.5,39.8,29.81,North,-999,0.0,0.0,48,0.00,,,0.00,0.00,VWS V14.01,2013-09-21 02:38:00,
2013-09-20 20:43:00,58.7,39.1,29.81,North,-999,0.0,0.0,48,0.00,,,0.00,0.00,VWS V14.01,2013-09-21 02:43:00,
2013-09-20 20:48:00,58.4,39.3,29.81,North,-999,0.0,0.0,49,0.00,,,0.00,0.00,VWS V14.01,2013-09-21 02:48:00,
2013-09-20 20:53:00,57.9,39.4,29.82,North,-999,0.0,0.0,50,0.00,,,0.00,0.00,VWS V14.01,2013-09-21 02:53:00,
2013-09-20 20:58:00,57.2,39.2,29.82,North,-999,0.0,0.0,51,0.00,,,0.00,0.00,VWS V14.01,2013-09-21 02:58:00,
2013-09-20 21:03:00,56.8,39.4,29.82,North,-999,0.0,0.0,52,0.00,,,0.00,0.00,VWS V14.01,2013-09-21 03:03:00,
2013-09-20 21:08:00,56.4,40.5,29.82,North,-999,0.0,0.0,55,0.00,,,0.00,0.00,VWS V14.01,2013-09-21 03:08:00,
2013-09-20 21:13:00,55.6,39.7,29.82,North,-999,0.0,0.0,55,0.00,,,0.00,0.00,VWS V14.01,2013-09-21 03:13:00,
2013-09-20 21:18:00,55.9,38.5,29.82,North,-999,0.0,0.0,52,0.00,,,0.00,0.00,VWS V14.01,2013-09-21 03:18:00,
2013-09-20 21:23:00,56.4,38.0,29.81,North,-999,0.0,0.0,50,0.00,,,0.00,0.00,VWS V14.01,2013-09-21 03:23:00,
2013-09-20 21:28:00,56.8,37.3,29.81,North,-999,0.0,0.0,48,0.00,,,0.00,0.00,VWS V14.01,2013-09-21 03:28:00,
2013-09-20 21:33:00,57.5,38.5,29.81,North,-999,0.0,0.0,49,0.00,,,0.00,0.00,VWS V14.01,2013-09-21 03:33:00,
2013-09-20 21:38:00,57.5,40.0,29.81,North,-999,0.0,0.0,52,0.00,,,0.00,0.00,VWS V14.01,2013-09-21 03:38:00,
2013-09-20 21:42:00,55.7,38.8,29.81,North,-999,0.0,0.0,53,0.00,,,0.00,0.00,VWS V14.01,2013-09-21 03:42:00,
2013-09-20 21:47:00,55.5,39.1,29.81,North,-999,0.0,0.0,54,0.00,,,0.00,0.00,VWS V14.01,2013-09-21 03:47:00,
2013-09-20 21:52:00,55.1,39.2,29.81,North,-999,0.0,0.0,55,0.00,,,0.00,0.00,VWS V14.01,2013-09-21 03:52:00,
2013-09-20 21:57:00,54.0,39.6,29.81,North,-999,0.0,0.0,58,0.00,,,0.00,0.00,VWS V14.01,2013-09-21 03:57:00,
2013-09-20 22:01:00,53.1,39.6,29.81,North,-999,0.0,0.0,60,0.00,,,0.00,0.00,VWS V14.01,2013-09-21 04:01:00,
2013-09-20 22:06:00,51.0,39.7,29.81,North,-999,0.0,0.0,65,0.00,,,0.00,0.00,VWS V14.01,2013-09-21 04:06:00,
2013-09-20 22:11:00,50.9,38.8,29.81,North,-999,0.0,0.0,63,0.00,,,0.00,0.00,VWS V14.01,2013-09-21 04:11:00,
2013-09-20 22:16:00,50.5,39.6,29.81,North,-999,0.0,0.0,66,0.00,,,0.00,0.00,VWS V14.01,2013-09-21 04:16:00,
2013-09-20 22:21:00,49.6,39.5,29.81,North,-999,0.0,0.0,68,0.00,,,0.00,0.00,VWS V14.01,2013-09-21 04:21:00,
2013-09-20 22:26:00,49.1,39.4,29.80,North,-999,0.0,0.0,69,0.00,,,0.00,0.00,VWS V14.01,2013-09-21 04:26:00,
2013-09-20 22:31:00,49.1,39.0,29.80,North,-999,0.0,0.0,68,0.00,,,0.00,0.00,VWS V14.01,2013-09-21 04:31:00,
2013-09-20 22:36:00,49.5,39.8,29.80,North,-999,4.0,5.0,69,0.00,,,0.00,0.00,VWS V14.01,2013-09-21 04:36:00,
2013-09-20 22:41:00,49.9,38.6,29.80,North,-999,0.0,4.0,65,0.00,,,0.00,0.00,VWS V14.01,2013-09-21 04:41:00,
2013-09-20 22:46:00,50.9,40.0,29.80,North,-999,0.0,4.0,66,0.00,,,0.00,0.00,VWS V14.01,2013-09-21 04:46:00,
2013-09-20 22:51:00,51.2,39.5,29.80,North,-999,0.0,0.0,64,0.00,,,0.00,0.00,VWS V14.01,2013-09-21 04:51:00,
2013-09-20 22:56:00,50.6,38.9,29.80,North,-999,0.0,0.0,64,0.00,,,0.00,0.00,VWS V14.01,2013-09-21 04:56:00,
2013-09-20 23:01:00,50.5,39.2,29.80,North,-999,4.0,6.0,65,0.00,,,0.00,0.00,VWS V14.01,2013-09-21 05:01:00,
2013-09-20 23:06:00,49.2,39.1,29.80,North,-999,4.0,6.0,68,0.00,,,0.00,0.00,VWS V14.01,2013-09-21 05:06:00,
2013-09-20 23:11:00,48.3,39.3,29.80,North,-999,5.0,5.0,71,0.00,,,0.00,0.00,VWS V14.01,2013-09-21 05:11:00,
2013-09-20 23:16:00,48.0,39.1,29.80,North,-999,5.0,6.0,71,0.00,,,0.00,0.00,VWS V14.01,2013-09-21 05:16:00,
2013-09-20 23:21:00,48.8,39.1,29.80,North,-999,5.0,6.0,69,0.00,,,0.00,0.00,VWS V14.01,2013-09-21 05:21:00,
2013-09-20 23:26:00,48.6,39.3,29.80,North,-999,5.0,6.0,70,0.00,,,0.00,0.00,VWS V14.01,2013-09-21 05:26:00,
2013-09-20 23:31:00,47.9,39.3,29.79,North,-999,6.0,7.0,72,0.00,,,0.00,0.00,VWS V14.01,2013-09-21 05:31:00,
2013-09-20 23:36:00,48.3,40.8,29.79,North,-999,2.0,7.0,75,0.00,,,0.00,0.00,VWS V14.01,2013-09-21 05:36:00,
2013-09-20 23:41:00,49.1,39.4,29.79,North,-999,0.0,4.0,69,0.00,,,0.00,0.00,VWS V14.01,2013-09-21 05:41:00,
2013-09-20 23:46:00,50.7,39.4,29.79,North,-999,0.0,4.0,65,0.00,,,0.00,0.00,VWS V14.01,2013-09-21 05:46:00,
2013-09-20 23:51:00,51.4,39.7,29.79,North,-999,0.0,0.0,64,0.00,,,0.00,0.00,VWS V14.01,2013-09-21 05:51:00,
2013-09-20 23:56:00,51.6,39.4,29.79,North,-999,0.0,0.0,63,0.00,,,0.00,0.00,VWS V14.01,2013-09-21 05:56:00,